Lynchburg, VA

5:04 AM EDT on October 21, 2019 (GMT -0400)
Lynchburg Regional-Glenn

Weather History for KLYH - August, 2019

Change the Weather History Date:

Wednesday, August 28, 2019

  Actual Average Record
Temperature  
Mean Temperature 76 °F 73 °F  
Max Temperature 88 °F 84 °F 98 °F (1948)
Min Temperature 65 °F 62 °F 51 °F (1986)
Degree Days  
Heating Degree Days 0 0  
Month to date heating degree days 0 0  
Since 1 June heating degree days 2 15  
Since 1 July heating degree days 0 1  
Cooling Degree Days 12 8  
Month to date cooling degree days 341 262  
Year to date cooling degree days 1196 876  
Since 1 June cooling degree days 984 794  
Growing Degree Days 26 (Base 50)    
Moisture  
Dew Point 66 °F    
Average Humidity 76    
Maximum Humidity 100    
Minimum Humidity 41    
Precipitation  
Precipitation 0.00 in 0.10 in 2.70 in (1893)
Month to date precipitation 3.24 2.94  
Year to date precipitation 27.58 27.61  
Snow  
Snow 0.00 in - - ()
Month to date snowfall 0.0  
Since 1 June snowfall 0.0  
Since 1 July snowfall 0.0  
Snow Depth 0.00 in    
Sea Level Pressure  
Sea Level Pressure 29.91 in    
Wind  
Wind Speed 2 mph ()    
Max Wind Speed 12 mph    
Max Gust Speed 16 mph    
Visibility 9.5 miles    
Events      
T = Trace of Precipitation, MM = Missing Value Source: Averaged Metar Reports

Daily Weather History Graph

Daily Weather History Graph

Search for Another Location

Airport or City:

Astronomy

Aug. 28, 2019 Rise Set
Actual Time 6:43 AM EDT 7:51 PM EDT
Civil Twilight 6:16 AM EDT 8:18 PM EDT
Nautical Twilight 5:44 AM EDT 8:50 PM EDT
Astronomical Twilight 5:11 AM EDT 9:23 PM EDT
Moon 4:17 AM EDT (8/28) 6:58 PM EDT (8/28)
Length of Visible Light 14h 01m
Length of Day
13h 07m
Waning Crescent, 5% of the Moon is Illuminated
Aug 28
Waning Crescent
Aug 30
New
Sep 5
First Quarter
Sep 14
Full
Sep 21
Last Quarter

Hourly Weather History & Observations

Time (EDT) Temp. Heat Index Dew Point Humidity Pressure Visibility Wind Dir Wind Speed Gust Speed Precip Events Conditions
12:54 AM 70.0 °F - 69.1 °F 97% 29.96 in 10.0 mi Calm Calm - N/A   Overcast
1:54 AM 70.0 °F - 69.1 °F 97% 29.95 in 10.0 mi Calm Calm - N/A   Overcast
3:54 AM 69.1 °F - 68.0 °F 96% 29.92 in 10.0 mi Calm Calm - N/A   Overcast
4:54 AM 69.1 °F - 69.1 °F 100% 29.92 in 10.0 mi Calm Calm - N/A   Overcast
5:46 AM 69.1 °F - 68.0 °F 96% 29.94 in 8.0 mi Calm Calm - N/A   Overcast
5:54 AM 69.1 °F - 68.0 °F 96% 29.92 in 9.0 mi Calm Calm - N/A   Overcast
6:54 AM 68.0 °F - 66.9 °F 96% 29.93 in 3.0 mi Calm Calm - N/A   Overcast
7:54 AM 70.0 °F - 69.1 °F 97% 29.92 in 5.0 mi Calm Calm - N/A   Overcast
8:54 AM 72.0 °F - 69.1 °F 91% 29.91 in 10.0 mi Calm Calm - N/A   Overcast
9:04 AM 72.0 °F - 68.0 °F 87% 29.94 in 10.0 mi Variable 4.6 mph - N/A   Overcast
9:11 AM 72.0 °F - 69.1 °F 91% 29.94 in 10.0 mi SW 3.5 mph - N/A   Overcast
9:54 AM 73.9 °F - 68.0 °F 82% 29.91 in 10.0 mi Variable 3.5 mph - N/A   Partly Cloudy
10:23 AM 75.2 °F - 68.0 °F 78% 29.94 in 10.0 mi WSW 5.8 mph - N/A   Mostly Cloudy
10:41 AM 78.1 °F - 69.1 °F 74% 29.94 in 10.0 mi Variable 3.5 mph - N/A   Overcast
10:54 AM 77.0 °F - 69.1 °F 76% 29.91 in 10.0 mi Calm Calm - N/A   Overcast
11:54 AM 79.0 °F - 69.1 °F 72% 29.91 in 10.0 mi Variable 3.5 mph - N/A   Scattered Clouds
12:52 PM 78.8 °F - 69.8 °F 74% 29.93 in 10.0 mi Variable 6.9 mph - N/A   Mostly Cloudy
12:54 PM 79.0 °F - 69.1 °F 72% 29.90 in 10.0 mi WSW 6.9 mph - N/A   Mostly Cloudy
1:54 PM 82.0 °F 85.5 °F 69.1 °F 65% 29.88 in 10.0 mi WNW 5.8 mph - N/A   Partly Cloudy
2:54 PM 84.0 °F 87.0 °F 68.0 °F 58% 29.86 in 10.0 mi WNW 3.5 mph - N/A   Mostly Cloudy
3:38 PM 87.1 °F 88.9 °F 64.9 °F 48% 29.88 in 10.0 mi Variable 6.9 mph - N/A   Partly Cloudy
3:54 PM 86.0 °F 87.6 °F 64.9 °F 49% 29.85 in 10.0 mi WNW 6.9 mph - N/A   Partly Cloudy
4:54 PM 86.0 °F 88.2 °F 66.0 °F 51% 29.85 in 10.0 mi Variable 6.9 mph - N/A   Mostly Cloudy
5:54 PM 86.0 °F 85.7 °F 60.1 °F 41% 29.86 in 10.0 mi Variable 4.6 mph - N/A   Clear
7:54 PM 73.0 °F - 61.0 °F 66% 29.88 in 10.0 mi WNW 4.6 mph - N/A   Partly Cloudy
8:54 PM 71.1 °F - 60.1 °F 68% 29.90 in 10.0 mi NW 3.5 mph - N/A   Partly Cloudy
9:54 PM 69.1 °F - 57.9 °F 68% 29.92 in 10.0 mi NW 3.5 mph - N/A   Clear
10:54 PM 69.1 °F - 55.9 °F 63% 29.94 in 10.0 mi WNW 5.8 mph - N/A   Clear
11:54 PM 69.1 °F - 55.0 °F 61% 29.95 in 10.0 mi NW 3.5 mph - N/A   Clear